STARLINK-33855, 64335

Orbit data source: Space-Track

STARLINK-33855, 64335 is a payload satellite owned by SpaceX/Seattle (US) in LEO that was launched on Tue, 10 Jun 2025 UTC via an FALCON 9 launch vehicle from the Air Force Eastern Test Range (AFETR). Payload-class satellites include a variety of spacecraft equipped with specific instruments for various scientific and technological missions. These include communications satellites like Starlink; space stations such as the ISS; scientific satellites like the Hubble; Earth observation satellites from companies like Planet Labs, Umbra, and HawkEye 360; GPS; miniature CubeSats for education and research; and military/defense satellites.

Loading next visibility...
Identifier
64335, 2025-124U
Orbit
LEO
Last TLE update
12 hours ago
Origin
Manufacturer
SpaceX/Seattle
Mission
Operational spacecraft
Bus & Motor
STARLINK V2MO, Unknown motor
Mass
575 kg wet, ~530 kg dry
Launch date (UTC)
2025-06-10 (1 month ago)
Launch vehicle
FALCON 9
Launch site
Air Force Eastern Test Range (AFETR)
Object type
Payload
Rocket body
Debris
Shape & HBR
Unknown
Radar Cross Section
Large (>1 m²)

Expand to show TLE details & history

TLE from 12 hours ago
0 STARLINK-33855
1 64335U 25124U   25199.85013499  .00023518  00000-0  56822-3 0  9995
2 64335  43.0006   4.3910 0003541 245.1948 114.8540 15.40712113  5990
Epoch: 2025-07-18T20:24Z
TLE epoch observation values (Epoch: 2025-07-18T20:24:11.663Z)
Latitude
-0.00003°
Longitude
121.44669°
Altitude
444.796 km
Speed
7.647 km/s
True Right ascension
00h 17m 33s
True Declination
0° 00' 00"
Sunlit
Object was in full shadow at epoch
Visualization orbit readout
Latitude
-19.83323°
Longitude
95.8677°
Altitude
447.964 km
Speed
7.644 km/s
Apparent Right ascension
01h 06m 32s
Apparent Declination
-71° 15' 48"
Sunlit
Object is in full shadow
Visualization observer readout
Local Sidereal Time
21:32:26
Azimuth
163.076° S
Elevation
-27.464°
Doppler factor
1
Orbital elements
Apogee altitude
448.379 km
Perigee altitude
443.546 km
Semi-major axis
6,824.1 km
Eccentricity
0.00035
Inclination
43.0006°
RAAN
4.391°
Arg. of periapsis
245.1948°
True anomaly
114.89081°
Mean anomaly
114.854°
Eccentric anomaly
114.87241°
Mean motion
3.85013 °/min
Orbital period
93.5 mins
BSTAR
0.00056822
Loading maneuver chart data...
Loading SW <> Apogee altitude chart data...
Loading historical data...
Loading historical data...
Loading historical data...
Loading historical data...
Loading historical data...
Loading historical data...
Loading historical data...
|